Mason City, IA

4:32 AM CDT on March 23, 2017 (GMT -0500)
Mason City Municipal

Weather History for KMCW - July, 2013

Change the Weather History Date:

Saturday, July 27, 2013

  Actual Average Record
Temperature  
Mean Temperature 59 °F 71 °F  
Max Temperature 68 °F 82 °F 100 °F (1916)
Min Temperature 49 °F 60 °F 47 °F (1971)
Degree Days  
Heating Degree Days 6 0  
Month to date heating degree days 10 0  
Since 1 June heating degree days 63 44  
Since 1 July heating degree days 10 0  
Cooling Degree Days 0 7  
Month to date cooling degree days 218 191  
Year to date cooling degree days 401 364  
Since 1 June cooling degree days 364 329  
Growing Degree Days 7 (Base 50)    
Moisture  
Dew Point 47 °F    
Average Humidity 66    
Maximum Humidity 89    
Minimum Humidity 42    
Precipitation  
Precipitation 0.00 in 0.15 in 3.98 in (1990)
Month to date precipitation 3.24 4.13  
Year to date precipitation 31.09 21.75  
Snow  
Snow 0.00 in 0.00 in - ()
Month to date snowfall 0.0 0.0  
Since 1 June snowfall 0.0 0.0  
Since 1 July snowfall 0.0 0.0  
Snow Depth 0.00 in    
Sea Level Pressure  
Sea Level Pressure 30.05 in    
Wind  
Wind Speed 10 mph (NW)    
Max Wind Speed 22 mph    
Max Gust Speed 28 mph    
Visibility 10 miles    
Events      
T = Trace of Precipitation, MM = Missing Value Source: NWS Daily Summary

Daily Weather History Graph

Daily Weather History Graph

Search for Another Location

Airport or City:

Trip Planner

Search our weather history database for the weather conditions in past years. The results will help you decide how hot, cold, wet, or windy it might be!

Date:

Astronomy

Jul. 27, 2013 Rise Set
Actual Time 5:58 AM CDT 8:40 PM CDT
Civil Twilight 5:25 AM CDT 9:12 PM CDT
Nautical Twilight 4:44 AM CDT 9:54 PM CDT
Astronomical Twilight 3:57 AM CDT 10:41 PM CDT
Moon 11:15 PM CDT (7/27) 11:51 AM CDT (7/27)
Length of Visible Light 15h 47m
Length of Day
14h 41m
Waning Gibbous, 70% of the Moon is Illuminated
Jul 27
Waning Gibbous
Jul 29
Last Quarter
Aug 6
New
Aug 14
First Quarter
Aug 20
Full

Hourly Weather History & Observations

Time (CDT) Temp. Dew Point Humidity Pressure Visibility Wind Dir Wind Speed Gust Speed Precip Events Conditions
12:53 AM 53.1 °F 48.9 °F 86% 30.06 in 10.0 mi North 6.9 mph - N/A   Clear
1:53 AM 52.0 °F 48.9 °F 89% 30.06 in 10.0 mi NW 6.9 mph - N/A   Clear
2:53 AM 52.0 °F 48.9 °F 89% 30.06 in 10.0 mi NW 8.1 mph - N/A   Clear
3:53 AM 51.1 °F 48.0 °F 89% 30.05 in 10.0 mi NW 8.1 mph - N/A   Clear
4:53 AM 50.0 °F 46.9 °F 89% 30.07 in 10.0 mi NW 9.2 mph - N/A   Scattered Clouds
5:01 AM 51.8 °F 46.4 °F 82% 30.08 in 10.0 mi NW 9.2 mph - N/A   Mostly Cloudy
5:16 AM 50.0 °F 46.4 °F 87% 30.09 in 10.0 mi NW 8.1 mph - N/A   Scattered Clouds
5:45 AM 50.0 °F 46.4 °F 87% 30.10 in 10.0 mi NW 10.4 mph - N/A   Mostly Cloudy
5:53 AM 50.0 °F 46.9 °F 89% 30.08 in 10.0 mi NW 10.4 mph - N/A   Mostly Cloudy
6:18 AM 48.2 °F 46.4 °F 93% 30.10 in 10.0 mi NW 9.2 mph - N/A   Partly Cloudy
6:53 AM 50.0 °F 46.9 °F 89% 30.07 in 10.0 mi NNW 8.1 mph - N/A   Clear
7:53 AM 52.0 °F 48.0 °F 86% 30.08 in 10.0 mi NNW 10.4 mph - N/A   Partly Cloudy
8:23 AM 53.6 °F 48.2 °F 82% 30.10 in 10.0 mi NW 12.7 mph - N/A   Mostly Cloudy
8:35 AM 53.6 °F 48.2 °F 82% 30.10 in 10.0 mi NW 13.8 mph - N/A   Mostly Cloudy
8:53 AM 55.0 °F 48.0 °F 77% 30.09 in 10.0 mi NNW 11.5 mph - N/A   Mostly Cloudy
9:10 AM 55.4 °F 46.4 °F 72% 30.10 in 10.0 mi NNW 10.4 mph - N/A   Scattered Clouds
9:53 AM 59.0 °F 45.0 °F 60% 30.07 in 10.0 mi NW 15.0 mph - N/A   Mostly Cloudy
10:53 AM 57.9 °F 44.1 °F 60% 30.06 in 10.0 mi NW 13.8 mph 23.0 mph N/A   Overcast
11:53 AM 60.1 °F 43.0 °F 53% 30.06 in 10.0 mi NNW 15.0 mph - N/A   Overcast
12:53 PM 62.1 °F 43.0 °F 50% 30.05 in 10.0 mi NW 19.6 mph 24.2 mph N/A   Mostly Cloudy
1:53 PM 63.0 °F 42.1 °F 46% 30.04 in 10.0 mi WNW 15.0 mph 21.9 mph N/A   Mostly Cloudy
2:53 PM 64.9 °F 43.0 °F 45% 30.02 in 10.0 mi NW 16.1 mph 23.0 mph N/A   Mostly Cloudy
3:53 PM 66.0 °F 43.0 °F 43% 30.00 in 10.0 mi NW 15.0 mph - N/A   Overcast
4:53 PM 64.9 °F 44.1 °F 47% 30.00 in 10.0 mi NNW 17.3 mph 23.0 mph N/A   Overcast
5:53 PM 62.1 °F 48.0 °F 60% 30.00 in 10.0 mi NNE 6.9 mph - N/A   Overcast
6:53 PM 61.0 °F 48.0 °F 62% 29.99 in 10.0 mi North 5.8 mph - N/A   Overcast
7:53 PM 61.0 °F 50.0 °F 67% 29.98 in 10.0 mi Calm Calm - N/A   Overcast
8:53 PM 60.1 °F 48.0 °F 64% 29.97 in 10.0 mi WSW 3.5 mph - N/A   Overcast
9:53 PM 61.0 °F 46.9 °F 60% 29.97 in 10.0 mi WSW 6.9 mph - N/A   Overcast
10:53 PM 60.1 °F 48.0 °F 64% 29.97 in 10.0 mi West 9.2 mph - N/A   Overcast
11:53 PM 59.0 °F 48.0 °F 67% 29.97 in 10.0 mi NW 8.1 mph - N/A   Overcast